Regional Weather Roundup
Issued by NWS

Home | Current Version | Previous Version | Graphics & Text | Print | Product List | Glossary On
Versions: 1 2 3 4 5 6 7 8 9 10 11 12 13 14 15 16 17 18 19 20 21 22 23 24 25 26 27 28
000
ASUS45 KTFX 230010
RWRMT
MONTANA REGIONAL WEATHER ROUNDUP
NATIONAL WEATHER SERVICE GREAT FALLS MT
600 PM MDT WED MAR 22 2017

NOTE: "FAIR" INDICATES FEW OR NO CLOUDS BELOW 12000 FEET WITH NO
SIGNIFICANT WEATHER AND/OR OBSTRUCTIONS TO VISIBILITY.

MTZ001>007-043-230100-
WEST OF THE DIVIDE

CITY           SKY/WX    TMP DP  RH WIND       PRES   REMARKS
KALISPELL      LGT RAIN  47  40  76 S8        29.83R
MISSOULA       PTSUNNY   55  38  52 W9        29.81S
BUTTE          CLOUDY    51  19  28 NW5       29.81S
MULLAN PASS    MIX PCPN  33  33 100 NW7       29.83S VSB 1/4 WCI  27
ANACONDA         N/A     54  21  28 W3        29.80F
DEER LODGE       N/A     52  28  40 N5        29.83R
EUREKA           N/A     54  34  47 S5        29.81S
HAMILTON         N/A     59  25  27 W8        29.78F
PLAINS           N/A     50  37  60 NW6       29.85R
RONAN            N/A     49  38  65 N12       29.88S
$$

MTZ008-052>055-230100-
SOUTHWEST MONTANA

CITY           SKY/WX    TMP DP  RH WIND       PRES   REMARKS
BOZEMAN        CLOUDY    54  36  50 NW8       29.78R
DILLON         CLOUDY    51  29  42 S8        29.81S
W YELLOWSTONE  CLOUDY    41  27  56 SW14G23   29.89F
ENNIS          PTSUNNY   54  25  32 SE18      29.86R
THREE FORKS      N/A     58  58 100 W8        29.80R
TWIN BRIDGES     N/A     54  31  41 SE13      29.83S
$$

MTZ009-010-012-014-046-048-049-054-230100-
EAST SLOPES AND CENTRAL MONTANA

CITY           SKY/WX    TMP DP  RH WIND       PRES   REMARKS
CUT BANK       MOSUNNY   53  29  39 SW29G35   29.73R
GREAT FALLS    CLOUDY    58  21  24 W14       29.74S
HELENA         MOSUNNY   58  28  32 NW10      29.77S
AUGUSTA          N/A     53  25  34 W18       29.75R
BOWMANS CRNR     N/A     54  20  27 W17       29.74S
CHOTEAU          N/A     55  25  30 W21       29.75F
CONRAD           N/A     54  32  43 W12       29.79R
FAIRFIELD        N/A     58  22  24 W17       29.73S
POWER            N/A     55  23  28 SW14      29.73S
RAYNESFORD     PTSUNNY   57  22  26 W14G23    29.75S
$$

MTZ011-013-016-021-045-047-050-051-230100-
NORTH CENTRAL MONTANA

CITY           SKY/WX    TMP DP  RH WIND       PRES   REMARKS
HAVRE          PTSUNNY   62  28  27 W17       29.71R
LEWISTOWN      PTSUNNY   58  25  28 N6        29.73S
N BAR RANCH      N/A     57  30  35 NE12      29.77S
CHINOOK          N/A     63  28  27 W7        29.70S
DENTON         PTSUNNY   59  26  28 NW13      29.70R
FORT BENTON      N/A     63  21  20 MISG      29.73S
GEYSER         PTSUNNY   57  24  27 W21       29.74R
GRASS RANGE      N/A     60  27  28 E10G16    29.70S
STANFORD       PTSUNNY   55  24  30 N10       29.75R
WINIFRED         N/A     60  25  26 NW10      29.73S
$$

MTZ017>020-022>027-061-062-230100-
NORTHEAST MONTANA

CITY           SKY/WX    TMP DP  RH WIND       PRES   REMARKS
GLASGOW        SUNNY     58  37  45 SE8       29.72F
JORDAN           N/A     65  29  25 SW3       29.71F
SIDNEY         SUNNY     55  36  48 S6        29.77S
WOLF POINT     SUNNY     60  36  40 SW3       29.73F
MALTA          MOSUNNY   63  32  31 NW13G20   29.70S
PLENTYWOOD       N/A     52  36  54 SE7       29.76S
POPLAR           N/A     59  37  44 SE3       29.74F
SCOBEY           N/A     57  31  37 CALM      29.73
$$

MTZ028>42-056>058-230100-
SOUTHCENTRAL AND SOUTHEAST MONTANA

CITY           SKY/WX    TMP DP  RH WIND       PRES   REMARKS
BAKER          CLOUDY    54  37  52 W6        29.78F
BILLINGS       MOSUNNY   63  37  38 SE12      29.71F
LIVINGSTON     CLOUDY    57  31  37 W12       29.77R
MILES CITY     MOSUNNY   58  38  47 S8        29.75F
BIG TIMBER     SUNNY     57  36  44 W3        29.78S
EKALAKA          N/A     54  38  54 NW6       29.79S
FORSYTH          N/A     61  37  41 E3        29.74F
HARLOWTON      PTSUNNY   57  31  37 S16       29.75S
LAUREL           N/A     63  35  35 E7        29.74R
$$

REGIONAL REPORTS...DAKOTAS

CITY           SKY/WX    TMP DP  RH WIND       PRES   REMARKS
WILLISTON      SUNNY     52  32  46 SE8       29.78S
MINOT          CLOUDY    40  30  67 SE15      29.86S
DICKINSON      CLOUDY    54  36  50 S8        29.76F
BEACH            N/A    N/A N/A N/A MISG        N/A
TIOGA            N/A     41  37  87 SE10      29.81F
WATFORD CITY     N/A     50  36  57 S7        29.79S
BISMARCK       CLEAR     44  31  60 SE22      29.88F
GRAND FORKS    CLOUDY    30  17  58 SE21      30.13F WCI  17
FARGO          CLOUDY    33  22  63 SE23G32   30.14F WCI  21
BUFFALO SD       N/A     60  39  45 W7        29.72R
RAPID CITY     CLOUDY    61  40  45 N12       29.77S
$$

REGIONAL REPORTS...WYOMING/IDAHO/WASHINGTON

CITY           SKY/WX    TMP DP  RH WIND       PRES   REMARKS
GILLETTE       CLOUDY    61  40  45 E6        29.78S
SHERIDAN       CLOUDY    60  40  47 N3        29.77F
BUFFALO WY     CLOUDY    58  38  47 NE6       29.80F
CODY           SUNNY     58  35  42 N7        29.75F
YELLOWSTONE LA   N/A     37  31  78 VRB6      29.92R
IDAHO FALLS    PTSUNNY   51  36  56 CALM      29.84F
SALMON         MOSUNNY   54  28  37 N8        29.78F
BOISE          CLOUDY    60  29  30 NW9       29.83F
SPOKANE        CLOUDY    48  41  76 SW13      29.86S
$$

REGIONAL REPORTS...ALBERTA

CITY           SKY/WX    TMP DP  RH WIND       PRES   REMARKS
EDMONTON       PTSUNNY   32  25  74 NW6       29.66R WCI  26
CALGARY        PTSUNNY   55  19  24 W15       29.63R
LETHBRIDGE     MOSUNNY   55  25  30 W31G39    29.68R
MEDICINE HAT   MOSUNNY   61  28  29 SW23G29   29.62S
WATERTON GATE    N/A     48  25  40 SW15G26     N/A
CARDSTON         N/A     54  25  32 W17G24      N/A
MILK RIVER       N/A     57  25  28 NW15G22     N/A
$$

REGIONAL REPORTS...SASKATCHEWAN

CITY           SKY/WX    TMP DP  RH WIND       PRES   REMARKS
SWIFT CURRENT  SUNNY     59  28  31 W23G33    29.60F
REGINA         MOSUNNY   37  30  75 SE18G25   29.72F WCI  27
SASKATOON      MOSUNNY   48  37  66 SW22G29   29.57R
VAL MARIE        N/A     59  27  29 W16G22      N/A
ROCKGLEN         N/A     54  36  50 SW9         N/A
ASSINIBOIA       N/A     28  25  86 NW8         N/A  WCI  20
$$




USA.gov is the U.S. government's official web portal to all federal, state and local government web resources and services.